Regional Weather Roundup
Issued by NWS

Home | Current Version | Previous Version | Text Only | Print | Product List | Glossary On
Versions: 1 2 3 4 5 6 7 8 9 10 11 12 13 14 15 16 17 18 19 20 21 22 23 24 25 26 27 28 29 30 31 32 33 34 35 36 37 38 39 40 41 42 43 44 45 46 47 48 49 50
000
ASUS43 KTOP 201208
RWRKS

WEATHER ROUNDUP FOR KANSAS
NATIONAL WEATHER SERVICE GOODLAND KS
700 AM CDT SUN APR 20 2014

NOTE:  "FAIR" INDICATES FEW OR NO CLOUDS BELOW 12,000 FEET WITH NO
SIGNIFICANT WEATHER AND/OR OBSTRUCTIONS TO VISIBILITY.

KSZ001>006-013>018-027>032-041>047-201300-
NORTHWEST KANSAS

CITY           SKY/WX    TMP DP  RH WIND       PRES   REMARKS
GOODLAND       CLOUDY    43  43 100 NE3       29.99R FOG
6HR MIN TEMP:  42; 6HR MAX TEMP:  51;

HAYS           CLOUDY    55  48  76 SE7       30.00S
HILL CITY      CLOUDY    53  49  86 S6        29.98R
6HR MIN TEMP:  53; 6HR MAX TEMP:  60;

RUSSELL        CLOUDY    60  50  69 S15       29.98R
6HR MIN TEMP:  59; 6HR MAX TEMP:  63;

$$

KSZ061>065-074>080-084>089-201300-
SOUTHWEST KANSAS

CITY           SKY/WX    TMP DP  RH WIND       PRES   REMARKS
DODGE CITY     CLOUDY    58  49  72 S13       30.00F
6HR MIN TEMP:  56; 6HR MAX TEMP:  60;

ELKHART          N/A     48  41  77 S8          N/A
GARDEN CITY    MOCLDY    53  49  86 S5        29.98S
6HR MIN TEMP:  53; 6HR MAX TEMP:  58;

GREAT BEND     MOCLDY    57  48  72 S12       30.01R
LIBERAL        MOCLDY    50  45  81 S7        30.02R
PRATT          MOCLDY    55  48  76 S10G16    30.03S
$$

KSZ066>073-081>083-090>101-201300-
SOUTHEAST KANSAS

CITY           SKY/WX    TMP DP  RH WIND       PRES   REMARKS
CHANUTE        PTCLDY    55  49  80 S8        30.12R
6HR MIN TEMP:  52; 6HR MAX TEMP:  58;

COFFEYVILLE    CLOUDY    56  50  80 SE6       30.12S
6HR MIN TEMP:  56; 6HR MAX TEMP:  60;

HUTCHINSON     PTCLDY    57  48  72 SE6       30.05R
6HR MIN TEMP:  56; 6HR MAX TEMP:  63;

MEDICINE LODGE   N/A     61  50  67 SE10      30.04S
NEWTON         MOCLDY    59  46  63 S10       30.09S
PARSONS        MOCLDY    59  48  67 S6        30.13R
6HR MIN TEMP:  56; 6HR MAX TEMP:  62;

WICHITA INTL   MOCLDY    59  50  72 S12       30.05S
6HR MIN TEMP:  58; 6HR MAX TEMP:  63;

WICHITA JABRA  MOCLDY    60  50  69 S9        30.06S
6HR MIN TEMP:  59; 6HR MAX TEMP:  63;

WICHITA MCCONL CLOUDY    60  54  79 SE13      30.06
WINFIELD       CLOUDY    61  51  70 SE7       30.09R
6HR MIN TEMP:  61; 6HR MAX TEMP:  63;

$$

KSZ007>012-019>026-033>040-048>060-102>105-201300-
NORTHEAST KANSAS

CITY           SKY/WX    TMP DP  RH WIND       PRES   REMARKS
CONCORDIA      MOCLDY    60  50  69 S20       29.98S
6HR MIN TEMP:  59; 6HR MAX TEMP:  66;

EMPORIA        MOCLDY    57  48  72 S12       30.07S
6HR MIN TEMP:  55; 6HR MAX TEMP:  59;

LAWRENCE       CLEAR     53  47  79 S7        30.09S
6HR MIN TEMP:  52; 6HR MAX TEMP:  58;

MANHATTAN      PTCLDY    62  50  64 SW14      30.03S
6HR MIN TEMP:  62; 6HR MAX TEMP:  65;

OLATHE IND     CLEAR     53  45  74 S8        30.11S
6HR MIN TEMP:  51; 6HR MAX TEMP:  59;

OLATHE EXE     PTCLDY    53  45  74 S7        30.10S
6HR MIN TEMP:  53; 6HR MAX TEMP:  58;

SALINA         CLOUDY    60  49  66 S9        30.03R
6HR MIN TEMP:  60; 6HR MAX TEMP:  66;

TOPEKA BILLARD PTCLDY    60  48  64 S3        30.07S
6HR MIN TEMP:  59; 6HR MAX TEMP:  65;

TOPEKA FORBES  PTCLDY    57  47  69 S8        30.07S
6HR MIN TEMP:  57; 6HR MAX TEMP:  63;

$$



USA.gov is the U.S. government's official web portal to all federal, state and local government web resources and services.